Flag for Turkey Weather past 2 weeks in Bursa, Turkey

Now
72 °F

Partly sunny.


Feels Like: 76 °F
Forecast: 55 / 77 °F
Wind: 10 mph from East

Location: Bursa


UV Index: 5 (Moderate)

Visibility: 8 mi


Pressure: 29.85 "Hg

Humidity: 59%

Dew point: 57 °F

Location of BursaLocation

Historic Weather in Bursa

°F

Bursa temperature yesterday

Maximum temperature yesterday: 78 °F (at 2:00 PM)
Minimum temperature yesterday: 54 °F (at 6:00 AM)
Average temperature yesterday: 67 °F

Past Weeks' High & Low Weather Summary

 TemperatureHumidityPressure
High79 °F (Apr 22, 4:00 PM)100% (Apr 13, 3:00 AM)30.14 "Hg (Apr 13, 3:00 AM)
Low37 °F (Apr 13, 7:00 AM)27% (Apr 10, 2:00 PM)29.64 "Hg (Apr 18, 4:00 AM)
Average59 °F68%29.95 "Hg
* Reported Apr 9 2:00 PM — Apr 24 2:00 PM, Bursa, Weather by CustomWeather, © 2014

Note: Actual official high and low records may vary slightly from our data, if they occured in-between our weather recording intervals... More about our weather records

Advertising

Historic Weather Conditions — Data for Previous 24 hours

 ConditionsComfort  
Time TempWeatherWind HumidityBarometerVisibility
2:00 PM
Apr 24
72 °FPartly sunny.10 mph59%29.85 "Hg7 mi
1:00 PM69 °FPartly sunny.9 mph70%29.89 "Hg7 mi
12:00 PM68 °FPartly sunny.7 mph74%29.92 "Hg7 mi
11:00 AM69 °FScattered clouds.6 mph71%29.98 "Hg7 mi
10:00 AM64 °FSprinkles. Overcast.10 mph85%30.00 "Hg5 mi
9:00 AM63 °FPartly sunny.7 mph83%29.93 "Hg9 mi
8:00 AM69 °FPartly sunny.5 mph56%29.85 "Hg9 mi
7:00 AM67 °FPartly sunny.5 mph58%29.85 "Hg9 mi
6:00 AM65 °FPassing clouds.3 mph65%29.86 "Hg9 mi
5:00 AM66 °FPassing clouds.3 mph68%29.88 "Hg9 mi
4:00 AM69 °FPassing clouds.6 mph60%29.91 "Hg9 mi
3:00 AM65 °FPassing clouds.3 mph75%29.92 "Hg9 mi
2:00 AM63 °FPassing clouds.3 mph80%29.95 "Hg9 mi
1:00 AM63 °FPassing clouds.3 mph79%29.97 "Hg9 mi
12:00 AM65 °FPassing clouds.2 mph75%29.99 "Hg9 mi
11:00 PM
Apr 23
67 °FPassing clouds.2 mph68%30.01 "Hg9 mi
10:00 PM69 °FPassing clouds.2 mph65%30.02 "Hg9 mi
9:00 PM70 °FPassing clouds.3 mph61%30.00 "Hg9 mi
8:00 PM71 °FPassing clouds.2 mph56%30.01 "Hg9 mi
7:00 PM74 °FPartly sunny.5 mph50%30.02 "Hg9 mi
6:00 PM76 °FPartly sunny.5 mph49%30.03 "Hg9 mi
5:00 PM76 °FPartly sunny.6 mph46%30.03 "Hg9 mi
4:00 PM78 °FPartly sunny.3 mph50%30.04 "Hg9 mi
3:00 PM78 °FPartly sunny.1 mph45%30.07 "Hg9 mi
Weather by CustomWeather, © 2014

See weather overview